User: anonymous
Location: Radomski Observatory
(40.2854°N, 79.5145°W)
Time: 10:06:37
(UTC-04:00)
Language:

Cosmos 1072 Rocket - Orbit

View from above orbital plane
View from above orbital plane
View from above satellite
View from above satellite

Ground track
Ground track

The orbit data is extracted from the following two-line orbital elements,

1 11239U 79003B   14260.74966575  .00000149  00000-0  13856-3 0  3597
2 11239 082.9356 113.3572 0039737 316.7982 093.1444 13.75731894789881
Epoch (UTC): 17 September 2014 17:59:31
Eccentricity: 0.0039737
inclination: 82.9356°
perigee height: 950 km
apogee height: 1008 km
right ascension of ascending node: 113.3572°
argument of perigee: 316.7982°
revolutions per day: 13.75731894
mean anomaly at epoch: 93.1444°
orbit number at epoch: 78988

The dashed part of the orbit path shows where the satellite is in the earth's shadow,  

DLR